When you browse on this site, cookies collect data to enhance your experience and personalize the content and advertising you see.
Visit our Privacy Policy to learn more. By continuing to use the site, you agree to this use of cookies and data.
  • En España
  • Lista de países
  • Para 7 días
  • Temperatura del agua
  • Mapa Satelital
  • El tiempo en el mapa
  • Informadores
  • user-avatar
    Iniciar sesión

    Tiempo cada hora Krukenychi

    Hoy, 24 Mayo, Viernes

    Tiempo Temperatura Precipitaciones Viento Presión Humedad
    00:00 +12°C° 0.1 mm 3 mps 735 mmHg 97%
    01:00 +12°C° 0.1 mm 3 mps 735 mmHg 98%
    02:00 +12°C° 0 mm 3 mps 735 mmHg 98%
    03:00 +12°C° 0 mm 3 mps 735 mmHg 98%
    04:00 +12°C° 0 mm 3 mps 735 mmHg 97%
    05:00 +12°C° 0 mm 3 mps 735 mmHg 97%
    06:00 +13°C° 0 mm 3 mps 735 mmHg 96%
    07:00 +13°C° 0 mm 3 mps 735 mmHg 95%
    08:00 +14°C° 0 mm 3 mps 735 mmHg 94%
    09:00 +14°C° 0.1 mm 3 mps 735 mmHg 93%
    10:00 +16°C° 0.1 mm 3 mps 735 mmHg 91%
    11:00 +16°C° 0.1 mm 3 mps 735 mmHg 90%
    12:00 +17°C° 0.4 mm 3 mps 735 mmHg 88%
    13:00 +18°C° 0.4 mm 4 mps 735 mmHg 86%
    14:00 +18°C° 0.4 mm 4 mps 735 mmHg 85%
    15:00 +18°C° 1 mm 4 mps 735 mmHg 85%
    16:00 +18°C° 1 mm 4 mps 735 mmHg 86%
    17:00 +18°C° 1 mm 4 mps 734 mmHg 86%
    18:00 +17°C° 0.3 mm 4 mps 734 mmHg 89%
    19:00 +16°C° 0.3 mm 3 mps 734 mmHg 91%
    20:00 +14°C° 0.3 mm 3 mps 734 mmHg 93%
    21:00 +14°C° 0 mm 3 mps 734 mmHg 94%
    22:00 +14°C° 0 mm 3 mps 734 mmHg 94%
    23:00 +14°C° 0 mm 2 mps 734 mmHg 95%

    Mañana, 25 Mayo, Sábado

    Tiempo Temperatura Precipitaciones Viento Presión Humedad
    00:00 +14°C° 0 mm 2 mps 734 mmHg 95%
    01:00 +14°C° 0 mm 2 mps 734 mmHg 96%
    02:00 +14°C° 0 mm 2 mps 734 mmHg 96%
    03:00 +13°C° 0 mm 2 mps 734 mmHg 97%
    04:00 +13°C° 0 mm 2 mps 734 mmHg 97%
    05:00 +12°C° 0 mm 2 mps 734 mmHg 98%
    06:00 +12°C° 0 mm 3 mps 735 mmHg 96%
    07:00 +13°C° 0 mm 3 mps 735 mmHg 94%
    08:00 +14°C° 0 mm 3 mps 735 mmHg 93%
    09:00 +16°C° 0 mm 3 mps 735 mmHg 88%
    10:00 +17°C° 0 mm 4 mps 735 mmHg 82%
    11:00 +19°C° 0 mm 4 mps 735 mmHg 77%
    12:00 +19°C° 0.4 mm 4 mps 735 mmHg 75%
    13:00 +20°C° 0.4 mm 4 mps 735 mmHg 73%
    14:00 +21°C° 0.4 mm 4 mps 735 mmHg 71%
    15:00 +21°C° 0.3 mm 4 mps 735 mmHg 71%
    16:00 +21°C° 0.3 mm 4 mps 735 mmHg 70%
    17:00 +21°C° 0.3 mm 4 mps 735 mmHg 70%
    18:00 +19°C° 0 mm 3 mps 735 mmHg 74%
    19:00 +18°C° 0 mm 3 mps 735 mmHg 78%
    20:00 +16°C° 0 mm 2 mps 735 mmHg 82%
    21:00 +15°C° 0 mm 2 mps 735 mmHg 84%
    22:00 +14°C° 0 mm 2 mps 736 mmHg 86%
    23:00 +13°C° 0 mm 3 mps 736 mmHg 88%

    Pasado mañana, 26 Mayo, Domingo

    Tiempo Temperatura Precipitaciones Viento Presión Humedad
    00:00 +13°C° 0 mm 2 mps 736 mmHg 89%
    01:00 +13°C° 0 mm 2 mps 736 mmHg 90%
    02:00 +13°C° 0 mm 2 mps 736 mmHg 91%
    03:00 +12°C° 0 mm 2 mps 736 mmHg 91%
    04:00 +12°C° 0 mm 2 mps 736 mmHg 91%
    05:00 +12°C° 0 mm 2 mps 736 mmHg 92%
    06:00 +14°C° 0 mm 1 mps 737 mmHg 87%
    07:00 +16°C° 0 mm 1 mps 737 mmHg 82%
    08:00 +19°C° 0 mm 1 mps 737 mmHg 77%
    09:00 +20°C° 0.1 mm 1 mps 737 mmHg 71%
    10:00 +20°C° 0.1 mm 2 mps 737 mmHg 66%
    11:00 +23°C° 0.1 mm 2 mps 737 mmHg 61%
    12:00 +23°C° 0.5 mm 2 mps 737 mmHg 61%
    13:00 +24°C° 0.5 mm 3 mps 737 mmHg 62%
    14:00 +24°C° 0.5 mm 3 mps 736 mmHg 62%
    15:00 +22°C° 1.2 mm 3 mps 736 mmHg 68%
    16:00 +22°C° 1.2 mm 3 mps 736 mmHg 74%
    17:00 +21°C° 1.2 mm 2 mps 736 mmHg 80%
    18:00 +20°C° 1.1 mm 3 mps 736 mmHg 82%
    19:00 +19°C° 1.1 mm 3 mps 736 mmHg 84%
    20:00 +18°C° 1.1 mm 3 mps 736 mmHg 86%
    21:00 +17°C° 1 mm 3 mps 736 mmHg 89%
    22:00 +17°C° 1 mm 3 mps 736 mmHg 91%
    23:00 +16°C° 1 mm 3 mps 736 mmHg 93%

    27 Mayo, Lunes

    Tiempo Temperatura Precipitaciones Viento Presión Humedad
    00:00 +16°C° 0.2 mm 3 mps 737 mmHg 93%
    01:00 +15°C° 0.2 mm 2 mps 737 mmHg 93%
    02:00 +15°C° 0.2 mm 2 mps 737 mmHg 94%
    03:00 +15°C° 0 mm 2 mps 737 mmHg 94%
    04:00 +14°C° 0 mm 2 mps 736 mmHg 94%
    05:00 +14°C° 0 mm 2 mps 736 mmHg 94%
    06:00 +16°C° 0 mm 2 mps 737 mmHg 90%
    07:00 +18°C° 0 mm 2 mps 737 mmHg 87%
    08:00 +19°C° 0 mm 2 mps 737 mmHg 83%
    09:00 +21°C° 0.2 mm 2 mps 737 mmHg 78%
    10:00 +22°C° 0.2 mm 3 mps 737 mmHg 73%
    11:00 +24°C° 0.2 mm 3 mps 737 mmHg 67%
    12:00 +25°C° 0.5 mm 3 mps 737 mmHg 64%
    13:00 +26°C° 0.5 mm 2 mps 737 mmHg 61%
    14:00 +26°C° 0.5 mm 2 mps 736 mmHg 59%
    15:00 +26°C° 0.2 mm 2 mps 736 mmHg 61%
    16:00 +26°C° 0.2 mm 2 mps 736 mmHg 63%
    17:00 +26°C° 0.2 mm 2 mps 736 mmHg 66%
    18:00 +24°C° 0.3 mm 2 mps 735 mmHg 72%
    19:00 +21°C° 0.3 mm 2 mps 735 mmHg 78%
    20:00 +20°C° 0.3 mm 1 mps 735 mmHg 84%
    21:00 +20°C° 0 mm 1 mps 735 mmHg 85%
    22:00 +19°C° 0 mm 1 mps 735 mmHg 85%
    23:00 +18°C° 0 mm 1 mps 735 mmHg 86%

    28 Mayo, Martes

    Tiempo Temperatura Precipitaciones Viento Presión Humedad
    00:00 +18°C° 0.1 mm 1 mps 734 mmHg 87%
    01:00 +18°C° 0.1 mm 1 mps 734 mmHg 88%
    02:00 +18°C° 0.1 mm 1 mps 734 mmHg 89%
    03:00 +18°C° 0.1 mm 1 mps 734 mmHg 90%
    04:00 +18°C° 0.1 mm 1 mps 733 mmHg 90%
    05:00 +16°C° 0.1 mm 1 mps 733 mmHg 91%
    06:00 +19°C° 0 mm 1 mps 733 mmHg 88%
    07:00 +20°C° 0 mm 1 mps 733 mmHg 86%
    08:00 +20°C° 0 mm 2 mps 732 mmHg 83%
    09:00 +23°C° 0 mm 2 mps 732 mmHg 76%
    10:00 +25°C° 0 mm 3 mps 732 mmHg 69%
    11:00 +27°C° 0 mm 3 mps 732 mmHg 61%
    12:00 +27°C° 1.2 mm 3 mps 731 mmHg 63%
    13:00 +27°C° 1.2 mm 3 mps 731 mmHg 64%
    14:00 +27°C° 1.2 mm 2 mps 731 mmHg 65%
    15:00 +27°C° 1.3 mm 2 mps 731 mmHg 67%
    16:00 +27°C° 1.3 mm 3 mps 731 mmHg 68%
    17:00 +26°C° 1.3 mm 3 mps 731 mmHg 69%
    18:00 +25°C° 0.7 mm 2 mps 731 mmHg 73%
    19:00 +23°C° 0.7 mm 1 mps 731 mmHg 77%
    20:00 +19°C° 0.7 mm 0 mps 731 mmHg 80%
    21:00 +20°C° 0.1 mm 1 mps 731 mmHg 83%
    22:00 +18°C° 0.1 mm 2 mps 731 mmHg 86%
    23:00 +17°C° 0.1 mm 3 mps 731 mmHg 89%

    29 Mayo, Miércoles

    Tiempo Temperatura Precipitaciones Viento Presión Humedad
    00:00 +17°C° 0 mm 3 mps 731 mmHg 88%
    01:00 +17°C° 0 mm 3 mps 731 mmHg 87%
    02:00 +17°C° 0 mm 2 mps 731 mmHg 87%
    03:00 +16°C° 0 mm 2 mps 731 mmHg 87%
    04:00 +16°C° 0 mm 2 mps 732 mmHg 88%
    05:00 +16°C° 0 mm 2 mps 732 mmHg 89%
    06:00 +17°C° 0 mm 3 mps 732 mmHg 85%
    07:00 +19°C° 0 mm 4 mps 732 mmHg 82%
    08:00 +20°C° 0 mm 5 mps 733 mmHg 78%
    09:00 +21°C° 0.1 mm 5 mps 733 mmHg 75%
    10:00 +22°C° 0.1 mm 6 mps 733 mmHg 72%
    11:00 +22°C° 0.1 mm 6 mps 734 mmHg 69%
    12:00 +23°C° 0.1 mm 6 mps 734 mmHg 68%
    13:00 +24°C° 0.1 mm 6 mps 734 mmHg 66%
    14:00 +24°C° 0.1 mm 6 mps 734 mmHg 64%
    15:00 +24°C° 0.1 mm 6 mps 734 mmHg 67%
    16:00 +25°C° 0.1 mm 5 mps 735 mmHg 69%
    17:00 +23°C° 0.1 mm 5 mps 735 mmHg 72%
    18:00 +22°C° 0.3 mm 4 mps 735 mmHg 76%
    19:00 +20°C° 0.3 mm 3 mps 735 mmHg 81%
    20:00 +19°C° 0.3 mm 3 mps 736 mmHg 85%
    21:00 +18°C° 0 mm 3 mps 736 mmHg 87%
    22:00 +17°C° 0 mm 3 mps 736 mmHg 89%
    23:00 +17°C° 0 mm 3 mps 737 mmHg 90%
    Mostrar más